THY4RN EGLL-LTFM

Flight info

Callsign THY4RN
Flight time 2h 48m
Altitude 41000
Route DET L6 DVR L9 KONAN UL607 KOK DCT LIRSU DCT LALMI DCT ABTAL DCT RIDAR DCT GOMIG DCT NEMAL DCT GOTAR DCT BABIT DCT ESIRI DCT ETIDA T390 RILEX
Aircraft B789/H-SDE1E2E3FGHIJ2J3J4J5M1RWXY/LB1D1

Departure

Time 2026-05-07 18:52
Airport London Heathrow Airport (EGLL)

Arrival

Time 2026-05-07 21:40
Airport İstanbul Airport (LTFM)
Time Latitude Longitude Altitude Speed Heading
2026-05-07 18:28 51.46865 -0.44417 92 ft 0 kts 90°
2026-05-07 18:40 51.46865 -0.44438 93 ft 4 kts 90°
2026-05-07 18:41 51.46864 -0.44481 92 ft 5 kts 90°
2026-05-07 18:41 51.46864 -0.44515 94 ft 4 kts 100°
2026-05-07 18:41 51.46875 -0.44549 93 ft 5 kts 156°
2026-05-07 18:41 51.46899 -0.44555 93 ft 5 kts 180°
2026-05-07 18:42 51.46921 -0.44555 92 ft 3 kts 180°
2026-05-07 18:44 51.46920 -0.44555 92 ft 1 kts 180°
2026-05-07 18:44 51.46890 -0.44555 92 ft 9 kts 179°
2026-05-07 18:45 51.46814 -0.44553 94 ft 12 kts 179°
2026-05-07 18:45 51.46730 -0.44553 94 ft 12 kts 179°
2026-05-07 18:45 51.46677 -0.44572 95 ft 5 kts 224°
2026-05-07 18:45 51.46666 -0.44640 92 ft 12 kts 263°
2026-05-07 18:46 51.46664 -0.44793 92 ft 14 kts 269°
2026-05-07 18:46 51.46663 -0.44960 92 ft 16 kts 270°
2026-05-07 18:46 51.46663 -0.45142 92 ft 17 kts 269°
2026-05-07 18:46 51.46663 -0.45335 92 ft 18 kts 270°
2026-05-07 18:47 51.46662 -0.45540 92 ft 19 kts 270°
2026-05-07 18:47 51.46662 -0.45754 92 ft 20 kts 269°
2026-05-07 18:47 51.46659 -0.45997 95 ft 22 kts 269°
2026-05-07 18:47 51.46659 -0.46252 95 ft 23 kts 269°
2026-05-07 18:48 51.46658 -0.46510 95 ft 23 kts 269°
2026-05-07 18:48 51.46657 -0.46773 95 ft 24 kts 270°
2026-05-07 18:48 51.46656 -0.47042 95 ft 24 kts 270°
2026-05-07 18:48 51.46656 -0.47317 94 ft 25 kts 269°
2026-05-07 18:49 51.46654 -0.47597 92 ft 25 kts 270°
2026-05-07 18:49 51.46654 -0.47877 92 ft 23 kts 270°
2026-05-07 18:49 51.46653 -0.48073 92 ft 9 kts 269°
2026-05-07 18:49 51.46653 -0.48104 92 ft 3 kts 269°
2026-05-07 18:50 51.46653 -0.48177 92 ft 11 kts 269°
2026-05-07 18:50 51.46652 -0.48335 92 ft 16 kts 269°
2026-05-07 18:50 51.46651 -0.48520 92 ft 17 kts 270°
2026-05-07 18:50 51.46647 -0.48702 93 ft 14 kts 253°
2026-05-07 18:51 51.46574 -0.48777 92 ft 13 kts 193°
2026-05-07 18:51 51.46495 -0.48743 94 ft 11 kts 133°
2026-05-07 18:51 51.46479 -0.48629 93 ft 11 kts 91°
2026-05-07 18:51 51.46479 -0.48405 92 ft 39 kts 90°
2026-05-07 18:52 51.46482 -0.47620 94 ft 103 kts 89°
2026-05-07 18:52 51.46484 -0.46147 102 ft 158 kts 89°
2026-05-07 18:52 51.46503 -0.44309 754 ft 164 kts 92°
2026-05-07 18:52 51.46514 -0.42419 1517 ft 177 kts 94°
2026-05-07 18:53 51.46091 -0.40508 1997 ft 195 kts 122°
2026-05-07 18:53 51.45326 -0.38547 2406 ft 220 kts 122°
2026-05-07 18:53 51.44598 -0.36244 2771 ft 250 kts 110°
2026-05-07 18:53 51.44045 -0.33535 3808 ft 252 kts 107°
2026-05-07 18:54 51.43513 -0.30829 4873 ft 256 kts 108°
2026-05-07 18:54 51.42955 -0.28073 5783 ft 265 kts 104°
2026-05-07 18:54 51.42576 -0.25113 6519 ft 269 kts 103°
2026-05-07 18:54 51.42142 -0.22185 7489 ft 274 kts 104°
2026-05-07 18:55 51.41717 -0.19169 8368 ft 281 kts 103°
2026-05-07 18:55 51.41308 -0.16077 9293 ft 286 kts 101°
2026-05-07 18:55 51.41048 -0.12869 10163 ft 292 kts 97°
2026-05-07 18:55 51.40851 -0.09520 10543 ft 316 kts 96°
2026-05-07 18:56 51.40654 -0.05863 10756 ft 344 kts 96°
2026-05-07 18:56 51.40453 -0.02053 10893 ft 369 kts 96°
2026-05-07 18:56 51.40233 0.02127 11522 ft 377 kts 96°
2026-05-07 18:56 51.40020 0.06327 12329 ft 381 kts 96°
2026-05-07 18:57 51.39807 0.10585 13066 ft 386 kts 96°
2026-05-07 18:57 51.39594 0.14896 13815 ft 390 kts 96°
2026-05-07 18:57 51.39381 0.19248 14466 ft 394 kts 96°
2026-05-07 18:57 51.39204 0.22827 14965 ft 398 kts 96°
2026-05-07 18:58 51.38983 0.27264 15598 ft 402 kts 96°
2026-05-07 18:58 51.38756 0.31752 16191 ft 406 kts 96°
2026-05-07 18:58 51.38524 0.36282 16794 ft 411 kts 96°
2026-05-07 18:58 51.38285 0.40866 17379 ft 415 kts 96°
2026-05-07 18:59 51.38042 0.45482 17962 ft 419 kts 96°
2026-05-07 18:59 51.37791 0.50182 18481 ft 423 kts 96°
2026-05-07 18:59 51.37311 0.54805 18949 ft 425 kts 106°
2026-05-07 18:59 51.36511 0.59377 19437 ft 428 kts 108°
2026-05-07 19:00 51.35666 0.63962 19916 ft 431 kts 107°
2026-05-07 19:00 51.34867 0.68591 20372 ft 434 kts 106°
2026-05-07 19:00 51.34086 0.73282 20808 ft 437 kts 106°
2026-05-07 19:00 51.33290 0.77928 21247 ft 440 kts 107°
2026-05-07 19:01 51.32445 0.82715 21627 ft 443 kts 107°
2026-05-07 19:01 51.31633 0.87346 22048 ft 446 kts 107°
2026-05-07 19:01 51.30804 0.92138 22482 ft 448 kts 107°
2026-05-07 19:01 51.29965 0.96956 22875 ft 451 kts 107°
2026-05-07 19:02 51.29125 1.01736 23218 ft 455 kts 107°
2026-05-07 19:02 51.28255 1.06669 23605 ft 457 kts 107°
2026-05-07 19:02 51.27403 1.11509 23913 ft 460 kts 107°
2026-05-07 19:02 51.26535 1.16425 24217 ft 462 kts 107°
2026-05-07 19:03 51.25658 1.21372 24513 ft 464 kts 107°
2026-05-07 19:03 51.24776 1.26330 24812 ft 465 kts 107°
2026-05-07 19:03 51.23888 1.31309 25088 ft 467 kts 107°
2026-05-07 19:03 51.22984 1.36369 25361 ft 470 kts 107°
2026-05-07 19:04 51.22084 1.41389 25639 ft 471 kts 107°
2026-05-07 19:04 51.21190 1.46365 25852 ft 475 kts 107°
2026-05-07 19:04 51.20276 1.51431 26136 ft 476 kts 107°
2026-05-07 19:04 51.19357 1.56519 26408 ft 478 kts 107°
2026-05-07 19:05 51.18419 1.61693 26690 ft 480 kts 107°
2026-05-07 19:05 51.17500 1.66747 26959 ft 482 kts 107°
2026-05-07 19:05 51.16564 1.71886 27232 ft 484 kts 108°
2026-05-07 19:05 51.15621 1.77046 27509 ft 486 kts 108°
2026-05-07 19:06 51.14671 1.82227 27783 ft 488 kts 108°
2026-05-07 19:06 51.12857 1.92082 28278 ft 493 kts 108°
2026-05-07 19:06 51.11888 1.97326 28529 ft 495 kts 108°
2026-05-07 19:07 51.10913 2.02586 28811 ft 497 kts 108°
2026-05-07 19:07 51.09929 2.07882 29076 ft 499 kts 108°
2026-05-07 19:07 51.08940 2.13185 29362 ft 501 kts 108°
2026-05-07 19:07 51.07943 2.18518 29631 ft 504 kts 108°
2026-05-07 19:08 51.07266 2.22131 29827 ft 505 kts 108°
2026-05-07 19:08 51.06260 2.27488 30099 ft 507 kts 108°
2026-05-07 19:08 51.05246 2.32873 30335 ft 509 kts 108°
2026-05-07 19:08 51.04225 2.38277 30584 ft 511 kts 108°
2026-05-07 19:09 51.03199 2.43693 30805 ft 514 kts 108°
2026-05-07 19:09 51.02168 2.49120 31064 ft 515 kts 108°
2026-05-07 19:09 51.01127 2.54582 31359 ft 516 kts 108°
2026-05-07 19:09 51.00086 2.60032 31751 ft 515 kts 108°
2026-05-07 19:10 50.99044 2.65467 32140 ft 514 kts 108°
2026-05-07 19:10 50.98003 2.70881 32542 ft 513 kts 108°
2026-05-07 19:10 50.96959 2.76298 32973 ft 513 kts 108°
2026-05-07 19:10 50.95928 2.81634 33408 ft 512 kts 108°
2026-05-07 19:11 50.94870 2.87090 33859 ft 511 kts 108°
2026-05-07 19:11 50.93823 2.92475 34264 ft 510 kts 108°
2026-05-07 19:11 50.92776 2.97846 34616 ft 510 kts 108°
2026-05-07 19:11 50.91728 3.03204 34983 ft 509 kts 109°
2026-05-07 19:12 50.90678 3.08562 35335 ft 509 kts 109°
2026-05-07 19:12 50.89627 3.13911 35686 ft 509 kts 109°
2026-05-07 19:12 50.88572 3.19260 36044 ft 508 kts 109°
2026-05-07 19:12 50.87516 3.24602 36395 ft 508 kts 109°
2026-05-07 19:13 50.86458 3.29936 36733 ft 508 kts 109°
2026-05-07 19:13 50.85427 3.35124 37091 ft 507 kts 109°
2026-05-07 19:13 50.84380 3.40380 37426 ft 507 kts 109°
2026-05-07 19:13 50.83318 3.45693 37781 ft 507 kts 109°
2026-05-07 19:14 50.82254 3.51006 38128 ft 507 kts 109°
2026-05-07 19:14 50.81158 3.56383 38449 ft 507 kts 111°
2026-05-07 19:14 50.79858 3.61543 38780 ft 505 kts 116°
2026-05-07 19:14 50.78388 3.66587 39029 ft 505 kts 116°
2026-05-07 19:15 50.76978 3.71673 39283 ft 506 kts 114°
2026-05-07 19:15 50.75717 3.76784 39523 ft 506 kts 112°
2026-05-07 19:15 50.74406 3.82014 39781 ft 506 kts 114°
2026-05-07 19:15 50.73029 3.87118 40021 ft 505 kts 115°
2026-05-07 19:16 50.71645 3.92213 40276 ft 505 kts 114°
2026-05-07 19:16 50.70323 3.97275 40534 ft 506 kts 114°
2026-05-07 19:16 50.68975 4.02469 40791 ft 505 kts 114°
2026-05-07 19:16 50.67634 4.07512 41056 ft 505 kts 115°
2026-05-07 19:17 50.64884 4.17780 41073 ft 509 kts 114°
2026-05-07 19:17 50.62163 4.28006 41066 ft 504 kts 115°
2026-05-07 19:18 50.59433 4.38145 41068 ft 503 kts 115°
2026-05-07 19:18 50.56705 4.48279 41070 ft 503 kts 115°
2026-05-07 19:19 50.53958 4.58411 41073 ft 504 kts 115°
2026-05-07 19:19 50.51202 4.68548 41071 ft 506 kts 115°
2026-05-07 19:20 50.48423 4.78717 41080 ft 506 kts 115°
2026-05-07 19:20 50.45670 4.88751 41079 ft 505 kts 115°
2026-05-07 19:21 50.42887 4.98848 41073 ft 504 kts 115°
2026-05-07 19:21 50.40100 5.08919 41060 ft 503 kts 115°
2026-05-07 19:22 50.37307 5.18967 41072 ft 503 kts 115°
2026-05-07 19:22 50.34501 5.29019 41081 ft 504 kts 115°
2026-05-07 19:23 50.31681 5.39078 41080 ft 505 kts 115°
2026-05-07 19:23 50.28844 5.49156 41075 ft 506 kts 116°
2026-05-07 19:24 50.25995 5.59230 41074 ft 507 kts 116°
2026-05-07 19:24 50.23139 5.69288 41075 ft 507 kts 116°
2026-05-07 19:25 50.20274 5.79338 41068 ft 506 kts 116°
2026-05-07 19:25 50.17409 5.89343 41058 ft 505 kts 116°
2026-05-07 19:26 50.14542 5.99311 41069 ft 503 kts 116°
2026-05-07 19:26 50.11667 6.09267 41061 ft 504 kts 116°
2026-05-07 19:27 50.08782 6.19217 41060 ft 504 kts 116°
2026-05-07 19:27 50.05917 6.29059 41059 ft 505 kts 116°
2026-05-07 19:28 50.03007 6.39013 41062 ft 505 kts 116°
2026-05-07 19:28 50.00085 6.48966 41060 ft 507 kts 116°
2026-05-07 19:29 49.97186 6.58799 41048 ft 508 kts 116°
2026-05-07 19:29 49.94228 6.68792 41052 ft 507 kts 116°
2026-05-07 19:30 49.91283 6.78701 41063 ft 506 kts 117°
2026-05-07 19:30 49.88331 6.88593 41056 ft 506 kts 117°
2026-05-07 19:31 49.85365 6.98493 41057 ft 507 kts 117°
2026-05-07 19:31 49.82387 7.08390 41060 ft 507 kts 117°
2026-05-07 19:32 49.79404 7.18264 41056 ft 507 kts 117°
2026-05-07 19:32 49.76410 7.28135 41064 ft 506 kts 117°
2026-05-07 19:33 49.73407 7.37994 41046 ft 507 kts 117°
2026-05-07 19:33 49.70394 7.47854 41057 ft 508 kts 117°
2026-05-07 19:34 49.67363 7.57722 41061 ft 509 kts 117°
2026-05-07 19:34 49.64343 7.67524 41056 ft 509 kts 117°
2026-05-07 19:35 49.61294 7.77375 41052 ft 509 kts 117°
2026-05-07 19:35 49.58233 7.87227 41053 ft 510 kts 117°
2026-05-07 19:36 49.55164 7.97067 41057 ft 510 kts 117°
2026-05-07 19:36 49.52085 8.06899 41053 ft 510 kts 117°
2026-05-07 19:37 49.48999 8.16713 41050 ft 509 kts 117°
2026-05-07 19:37 49.45911 8.26496 41047 ft 508 kts 118°
2026-05-07 19:38 49.42818 8.36256 41048 ft 508 kts 118°
2026-05-07 19:38 49.39710 8.46025 41072 ft 510 kts 118°
2026-05-07 19:39 49.36583 8.55816 41075 ft 511 kts 118°
2026-05-07 19:39 49.33447 8.65597 41072 ft 510 kts 118°
2026-05-07 19:40 49.30337 8.75259 41064 ft 509 kts 118°
2026-05-07 19:40 49.27202 8.84962 41056 ft 508 kts 118°
2026-05-07 19:41 49.24065 8.94633 41052 ft 507 kts 118°
2026-05-07 19:41 49.20909 9.04322 41055 ft 510 kts 118°
2026-05-07 19:42 49.17731 9.14048 41058 ft 511 kts 118°
2026-05-07 19:42 49.14549 9.23745 41052 ft 510 kts 118°
2026-05-07 19:43 49.11359 9.33427 41064 ft 510 kts 118°
2026-05-07 19:43 49.08160 9.43104 41070 ft 511 kts 118°
2026-05-07 19:44 49.04948 9.52778 41078 ft 512 kts 119°
2026-05-07 19:44 49.01722 9.62462 41082 ft 512 kts 119°
2026-05-07 19:45 48.98488 9.72132 41072 ft 512 kts 119°
2026-05-07 19:45 48.95249 9.81780 41065 ft 512 kts 119°
2026-05-07 19:46 48.92003 9.91411 41068 ft 512 kts 119°
2026-05-07 19:46 48.88745 10.01041 41060 ft 512 kts 119°
2026-05-07 19:47 48.85474 10.10659 41074 ft 512 kts 121°
2026-05-07 19:47 48.81928 10.20018 41096 ft 512 kts 121°
2026-05-07 19:48 48.78392 10.29395 41092 ft 511 kts 122°
2026-05-07 19:48 48.74824 10.38713 41098 ft 511 kts 122°
2026-05-07 19:49 48.71278 10.48022 41091 ft 510 kts 122°
2026-05-07 19:49 48.67709 10.57303 41081 ft 510 kts 122°
2026-05-07 19:50 48.64141 10.66582 41082 ft 510 kts 122°
2026-05-07 19:50 48.60558 10.75850 41080 ft 511 kts 122°
2026-05-07 19:51 48.57617 10.85608 41086 ft 514 kts 111°
2026-05-07 19:51 48.55304 10.95815 41079 ft 515 kts 110°
2026-05-07 19:52 48.53353 11.04299 41075 ft 515 kts 111°
2026-05-07 19:52 48.50996 11.14504 41078 ft 515 kts 111°
2026-05-07 19:53 48.48638 11.24704 41081 ft 515 kts 111°
2026-05-07 19:53 48.46265 11.34888 41067 ft 516 kts 111°
2026-05-07 19:54 48.43885 11.45080 41074 ft 515 kts 111°
2026-05-07 19:54 48.41492 11.55258 41078 ft 515 kts 111°
2026-05-07 19:55 48.39096 11.65418 41076 ft 516 kts 111°
2026-05-07 19:55 48.36688 11.75573 41073 ft 515 kts 111°
2026-05-07 19:56 48.34276 11.85695 41067 ft 514 kts 111°
2026-05-07 19:56 48.31862 11.95783 41068 ft 512 kts 112°
2026-05-07 19:57 48.29441 12.05855 41063 ft 513 kts 112°
2026-05-07 19:57 48.27006 12.15938 41059 ft 514 kts 112°
2026-05-07 19:58 48.24555 12.26037 41061 ft 515 kts 112°
2026-05-07 19:58 48.22112 12.36064 41072 ft 515 kts 112°
2026-05-07 19:59 48.19641 12.46153 41061 ft 515 kts 112°
2026-05-07 19:59 48.17165 12.56223 41063 ft 515 kts 112°
2026-05-07 20:00 48.14682 12.66271 41059 ft 514 kts 112°
2026-05-07 20:00 48.12032 12.76203 41053 ft 514 kts 114°
2026-05-07 20:01 48.09392 12.86141 41058 ft 514 kts 114°
2026-05-07 20:01 48.06665 12.96016 41064 ft 514 kts 114°
2026-05-07 20:02 48.03970 13.05932 41064 ft 515 kts 115°
2026-05-07 20:02 48.01235 13.15842 41067 ft 516 kts 115°
2026-05-07 20:03 47.98505 13.25749 41063 ft 515 kts 115°
2026-05-07 20:03 47.95765 13.35621 41055 ft 514 kts 115°
2026-05-07 20:04 47.93051 13.45377 41054 ft 513 kts 115°
2026-05-07 20:04 47.90115 13.55042 41065 ft 512 kts 118°
2026-05-07 20:05 47.87065 13.64646 41050 ft 513 kts 118°
2026-05-07 20:05 47.83958 13.74226 41056 ft 514 kts 118°
2026-05-07 20:06 47.80862 13.83822 41053 ft 515 kts 118°
2026-05-07 20:06 47.77741 13.93417 41056 ft 516 kts 118°
2026-05-07 20:07 47.74617 14.03004 41051 ft 515 kts 118°
2026-05-07 20:07 47.71487 14.12564 41059 ft 514 kts 119°
2026-05-07 20:08 47.68349 14.22117 41062 ft 515 kts 119°
2026-05-07 20:08 47.65199 14.31672 41070 ft 515 kts 119°
2026-05-07 20:09 47.62044 14.41201 41074 ft 515 kts 119°
2026-05-07 20:10 47.57298 14.55475 41074 ft 515 kts 119°
2026-05-07 20:10 47.54123 14.64980 41079 ft 515 kts 119°
2026-05-07 20:11 47.50937 14.74484 41086 ft 516 kts 119°
2026-05-07 20:11 47.47746 14.83967 41076 ft 514 kts 120°
2026-05-07 20:12 47.44557 14.93409 41076 ft 514 kts 120°
2026-05-07 20:12 47.41359 15.02842 41063 ft 514 kts 120°
2026-05-07 20:13 47.38153 15.12265 41038 ft 514 kts 120°
2026-05-07 20:13 47.34940 15.21676 41058 ft 514 kts 120°
2026-05-07 20:14 47.31717 15.31083 41054 ft 514 kts 120°
2026-05-07 20:14 47.28485 15.40480 41053 ft 514 kts 120°
2026-05-07 20:15 47.25249 15.49855 41043 ft 513 kts 121°
2026-05-07 20:15 47.22006 15.59216 41052 ft 514 kts 121°
2026-05-07 20:16 47.18753 15.68575 41051 ft 514 kts 121°
2026-05-07 20:16 47.15512 15.77864 41045 ft 514 kts 121°
2026-05-07 20:17 47.12242 15.87205 41041 ft 515 kts 121°
2026-05-07 20:17 47.08954 15.96562 41033 ft 515 kts 121°
2026-05-07 20:18 47.05664 16.05894 41031 ft 515 kts 121°
2026-05-07 20:18 47.02364 16.15220 41029 ft 515 kts 121°
2026-05-07 20:19 46.99014 16.24493 41039 ft 513 kts 123°
2026-05-07 20:19 46.95586 16.33677 41036 ft 514 kts 122°
2026-05-07 20:20 46.92131 16.42820 41036 ft 513 kts 123°
2026-05-07 20:20 46.88669 16.51959 41035 ft 514 kts 122°
2026-05-07 20:21 46.85209 16.61084 41025 ft 513 kts 123°
2026-05-07 20:21 46.81729 16.70200 41022 ft 514 kts 123°
2026-05-07 20:22 46.78249 16.79316 41022 ft 515 kts 123°
2026-05-07 20:22 46.74747 16.88436 41031 ft 515 kts 123°
2026-05-07 20:23 46.71242 16.97547 41021 ft 516 kts 123°
2026-05-07 20:23 46.67720 17.06663 41022 ft 516 kts 123°
2026-05-07 20:24 46.64215 17.15710 41025 ft 517 kts 123°
2026-05-07 20:24 46.60682 17.24796 41004 ft 515 kts 123°
2026-05-07 20:25 46.57153 17.33841 41012 ft 514 kts 123°
2026-05-07 20:25 46.53620 17.42867 41010 ft 513 kts 123°
2026-05-07 20:26 46.50085 17.51872 41012 ft 513 kts 123°
2026-05-07 20:26 46.46547 17.60851 41021 ft 512 kts 123°
2026-05-07 20:27 46.43008 17.69803 41021 ft 512 kts 123°
2026-05-07 20:27 46.39460 17.78750 41025 ft 512 kts 123°
2026-05-07 20:28 46.35898 17.87700 41025 ft 514 kts 124°
2026-05-07 20:28 46.32325 17.96654 41028 ft 513 kts 124°
2026-05-07 20:29 46.28744 18.05594 41031 ft 513 kts 124°
2026-05-07 20:29 46.25130 18.14583 41056 ft 524 kts 124°
2026-05-07 20:30 46.21410 18.23814 41039 ft 538 kts 124°
2026-05-07 20:30 46.17625 18.33176 41050 ft 541 kts 124°
2026-05-07 20:31 46.13821 18.42546 41052 ft 541 kts 124°
2026-05-07 20:31 46.10008 18.51910 41045 ft 541 kts 124°
2026-05-07 20:32 46.06218 18.61187 41038 ft 541 kts 124°
2026-05-07 20:32 46.02391 18.70518 41031 ft 542 kts 124°
2026-05-07 20:33 45.98555 18.79845 41031 ft 542 kts 124°
2026-05-07 20:33 45.94711 18.89157 41028 ft 542 kts 124°
2026-05-07 20:34 45.90256 18.97716 41039 ft 534 kts 135°
2026-05-07 20:34 45.85365 19.05726 41045 ft 533 kts 135°
2026-05-07 20:35 45.80486 19.13749 41043 ft 534 kts 135°
2026-05-07 20:35 45.75598 19.21741 41038 ft 533 kts 135°
2026-05-07 20:36 45.70705 19.29722 41030 ft 534 kts 135°
2026-05-07 20:36 45.65806 19.37694 41034 ft 534 kts 135°
2026-05-07 20:37 45.60899 19.45651 41035 ft 534 kts 135°
2026-05-07 20:37 45.55989 19.53594 41035 ft 534 kts 135°
2026-05-07 20:38 45.51070 19.61526 41033 ft 534 kts 135°
2026-05-07 20:38 45.46180 19.69390 41036 ft 534 kts 135°
2026-05-07 20:39 45.41240 19.77310 41020 ft 535 kts 135°
2026-05-07 20:39 45.36296 19.85217 41040 ft 535 kts 135°
2026-05-07 20:40 45.31346 19.93108 41037 ft 535 kts 135°
2026-05-07 20:40 45.26393 20.00983 41036 ft 535 kts 135°
2026-05-07 20:41 45.21432 20.08848 41033 ft 535 kts 135°
2026-05-07 20:41 45.16461 20.16708 41033 ft 535 kts 135°
2026-05-07 20:42 45.12291 20.23283 41035 ft 536 kts 135°
2026-05-07 20:42 45.07297 20.31137 41032 ft 536 kts 136°
2026-05-07 20:43 45.02301 20.38971 41036 ft 537 kts 135°
2026-05-07 20:43 44.97329 20.46748 41045 ft 537 kts 136°
2026-05-07 20:44 44.92322 20.54556 41044 ft 537 kts 136°
2026-05-07 20:44 44.87308 20.62353 41051 ft 536 kts 135°
2026-05-07 20:45 44.82294 20.70129 41051 ft 536 kts 136°
2026-05-07 20:45 44.77276 20.77889 41052 ft 536 kts 136°
2026-05-07 20:46 44.72254 20.85635 41056 ft 536 kts 136°
2026-05-07 20:46 44.67220 20.93375 41039 ft 536 kts 136°
2026-05-07 20:47 44.62184 21.01099 41045 ft 536 kts 136°
2026-05-07 20:47 44.57136 21.08818 41041 ft 538 kts 136°
2026-05-07 20:48 44.52078 21.16533 41041 ft 537 kts 136°
2026-05-07 20:48 44.47012 21.24239 41042 ft 537 kts 136°
2026-05-07 20:49 44.41947 21.31921 41053 ft 537 kts 136°
2026-05-07 20:49 44.36870 21.39600 41050 ft 537 kts 136°
2026-05-07 20:50 44.31798 21.47251 41052 ft 537 kts 136°
2026-05-07 20:50 44.26735 21.54950 41051 ft 539 kts 135°
2026-05-07 20:51 44.21657 21.62641 41059 ft 539 kts 136°
2026-05-07 20:51 44.16570 21.70320 41064 ft 540 kts 136°
2026-05-07 20:52 44.11474 21.77999 41064 ft 540 kts 136°
2026-05-07 20:52 44.06368 21.85664 41067 ft 540 kts 136°
2026-05-07 20:53 44.01264 21.93313 41054 ft 541 kts 136°
2026-05-07 20:53 43.96138 22.00967 41065 ft 541 kts 136°
2026-05-07 20:54 43.91005 22.08616 41066 ft 541 kts 136°
2026-05-07 20:54 43.85868 22.16248 41068 ft 541 kts 136°
2026-05-07 20:55 43.80723 22.23872 41068 ft 542 kts 136°
2026-05-07 20:55 43.75573 22.31481 41071 ft 542 kts 136°
2026-05-07 20:56 43.70416 22.39093 41069 ft 544 kts 134°
2026-05-07 20:56 43.68136 22.43287 41093 ft 549 kts 123°
2026-05-07 20:56 43.66330 22.47933 41087 ft 549 kts 119°
2026-05-07 20:57 43.62907 22.57290 41088 ft 550 kts 118°
2026-05-07 20:57 43.59451 22.66693 41086 ft 549 kts 119°
2026-05-07 20:58 43.55985 22.76083 41077 ft 549 kts 118°
2026-05-07 20:58 43.52515 22.85467 41079 ft 549 kts 119°
2026-05-07 20:59 43.49036 22.94830 41088 ft 549 kts 119°
2026-05-07 20:59 43.45550 23.04190 41083 ft 549 kts 119°
2026-05-07 21:00 43.42056 23.13534 41082 ft 549 kts 119°
2026-05-07 21:00 43.38554 23.22873 41073 ft 549 kts 119°
2026-05-07 21:01 43.35044 23.32200 41074 ft 549 kts 119°
2026-05-07 21:01 43.31523 23.41524 41060 ft 550 kts 119°
2026-05-07 21:02 43.27983 23.50869 41070 ft 552 kts 119°
2026-05-07 21:02 43.24432 23.60212 41068 ft 552 kts 119°
2026-05-07 21:03 43.20867 23.69560 41066 ft 553 kts 119°
2026-05-07 21:03 43.17293 23.78902 41065 ft 554 kts 119°
2026-05-07 21:04 43.13710 23.88237 41062 ft 553 kts 120°
2026-05-07 21:04 43.10121 23.97555 41066 ft 553 kts 119°
2026-05-07 21:05 43.06528 24.06854 41069 ft 553 kts 120°
2026-05-07 21:05 43.02926 24.16146 41076 ft 553 kts 120°
2026-05-07 21:06 42.99316 24.25428 41079 ft 553 kts 119°
2026-05-07 21:06 42.95699 24.34698 41078 ft 553 kts 120°
2026-05-07 21:07 42.92079 24.43944 41085 ft 553 kts 120°
2026-05-07 21:07 42.88445 24.53199 41086 ft 554 kts 120°
2026-05-07 21:08 42.84828 24.62380 41061 ft 554 kts 120°
2026-05-07 21:08 42.81162 24.71659 41086 ft 557 kts 120°
2026-05-07 21:09 42.77487 24.80933 41081 ft 557 kts 120°
2026-05-07 21:09 42.73803 24.90195 41088 ft 557 kts 120°
2026-05-07 21:10 42.70112 24.99448 41085 ft 557 kts 120°
2026-05-07 21:10 42.66412 25.08692 41085 ft 556 kts 120°
2026-05-07 21:11 42.62708 25.17920 41080 ft 556 kts 120°
2026-05-07 21:11 42.57137 25.31739 41081 ft 556 kts 120°
2026-05-07 21:12 42.53410 25.40949 41073 ft 557 kts 120°
2026-05-07 21:12 42.49673 25.50155 41071 ft 557 kts 120°
2026-05-07 21:13 42.45928 25.59350 41071 ft 558 kts 120°
2026-05-07 21:13 42.42177 25.68532 41067 ft 557 kts 120°
2026-05-07 21:14 42.38420 25.77700 41052 ft 558 kts 120°
2026-05-07 21:14 42.34641 25.86892 41066 ft 560 kts 120°
2026-05-07 21:15 42.30851 25.96082 41062 ft 559 kts 120°
2026-05-07 21:15 42.27060 26.05246 41061 ft 559 kts 120°
2026-05-07 21:16 42.23261 26.14398 41062 ft 559 kts 120°
2026-05-07 21:16 42.19481 26.23475 41064 ft 558 kts 120°
2026-05-07 21:17 42.15671 26.32600 41062 ft 558 kts 120°
2026-05-07 21:17 42.12585 26.42246 41077 ft 558 kts 107°
2026-05-07 21:18 42.10225 26.52101 41068 ft 541 kts 110°
2026-05-07 21:18 42.08910 26.56800 40893 ft 536 kts 110°
2026-05-07 21:18 42.07666 26.61330 40169 ft 536 kts 109°
2026-05-07 21:19 42.06452 26.66103 39299 ft 541 kts 108°
2026-05-07 21:19 42.05233 26.70902 38442 ft 544 kts 109°
2026-05-07 21:19 42.03950 26.75688 37650 ft 542 kts 110°
2026-05-07 21:19 42.02681 26.80369 36044 ft 529 kts 110°
2026-05-07 21:20 42.01460 26.85007 34336 ft 521 kts 110°
2026-05-07 21:20 42.00247 26.89640 32040 ft 545 kts 111°
2026-05-07 21:20 41.98973 26.94399 31132 ft 547 kts 111°
2026-05-07 21:20 41.97677 26.99232 29870 ft 552 kts 110°
2026-05-07 21:21 41.96382 27.04093 28775 ft 554 kts 110°
2026-05-07 21:21 41.95080 27.08979 27722 ft 555 kts 110°
2026-05-07 21:21 41.93789 27.13787 26673 ft 541 kts 110°
2026-05-07 21:21 41.92524 27.18484 25654 ft 529 kts 110°
2026-05-07 21:22 41.91285 27.23085 24664 ft 519 kts 110°
2026-05-07 21:22 41.90067 27.27604 23688 ft 510 kts 110°
2026-05-07 21:22 41.88868 27.32046 22687 ft 500 kts 110°
2026-05-07 21:22 41.87692 27.36387 21769 ft 490 kts 110°
2026-05-07 21:23 41.86538 27.40640 20855 ft 480 kts 110°
2026-05-07 21:23 41.85405 27.44811 19959 ft 471 kts 110°
2026-05-07 21:23 41.84291 27.48905 19100 ft 464 kts 110°
2026-05-07 21:23 41.83191 27.52941 18208 ft 458 kts 110°
2026-05-07 21:24 41.82103 27.56928 17361 ft 454 kts 111°
2026-05-07 21:24 41.81021 27.60881 16525 ft 450 kts 111°
2026-05-07 21:24 41.79952 27.64787 15695 ft 441 kts 111°
2026-05-07 21:24 41.78903 27.68613 14892 ft 436 kts 111°
2026-05-07 21:25 41.77856 27.72423 14092 ft 434 kts 110°
2026-05-07 21:25 41.76819 27.76192 13263 ft 426 kts 110°
2026-05-07 21:25 41.75804 27.79877 12487 ft 419 kts 111°
2026-05-07 21:25 41.74796 27.83530 11725 ft 417 kts 111°
2026-05-07 21:26 41.73796 27.87145 11179 ft 411 kts 111°
2026-05-07 21:26 41.72807 27.90719 10990 ft 411 kts 111°
2026-05-07 21:26 41.71808 27.94321 10842 ft 412 kts 111°
2026-05-07 21:26 41.70811 27.97918 10690 ft 412 kts 111°
2026-05-07 21:27 41.69833 28.01439 10401 ft 400 kts 111°
2026-05-07 21:27 41.68864 28.04916 9968 ft 406 kts 111°
2026-05-07 21:27 41.67881 28.08442 9529 ft 404 kts 111°
2026-05-07 21:27 41.66899 28.11963 9114 ft 403 kts 111°
2026-05-07 21:28 41.65925 28.15447 8703 ft 394 kts 111°
2026-05-07 21:28 41.64977 28.18837 8280 ft 377 kts 111°
2026-05-07 21:28 41.64118 28.21910 7905 ft 330 kts 111°
2026-05-07 21:28 41.63595 28.23775 7676 ft 304 kts 111°
2026-05-07 21:29 41.62892 28.26279 7384 ft 273 kts 112°
2026-05-07 21:29 41.62222 28.28651 7112 ft 276 kts 112°
2026-05-07 21:29 41.61534 28.31092 6864 ft 281 kts 111°
2026-05-07 21:29 41.60858 28.33499 6584 ft 275 kts 111°
2026-05-07 21:30 41.60180 28.35906 6284 ft 278 kts 112°
2026-05-07 21:30 41.59499 28.38321 5940 ft 278 kts 112°
2026-05-07 21:30 41.58824 28.40710 5615 ft 274 kts 112°
2026-05-07 21:30 41.58147 28.43106 5320 ft 277 kts 112°
2026-05-07 21:31 41.57614 28.45571 5083 ft 278 kts 94°
2026-05-07 21:31 41.57922 28.48108 5023 ft 279 kts 67°
2026-05-07 21:31 41.59058 28.50183 5028 ft 278 kts 38°
2026-05-07 21:31 41.60666 28.51595 5056 ft 278 kts 30°
2026-05-07 21:32 41.62323 28.52933 5033 ft 278 kts 29°
2026-05-07 21:32 41.63819 28.54517 5011 ft 270 kts 52°
2026-05-07 21:32 41.64625 28.56708 5019 ft 271 kts 78°
2026-05-07 21:32 41.64641 28.59277 5042 ft 279 kts 101°
2026-05-07 21:33 41.64287 28.61842 5053 ft 282 kts 102°
2026-05-07 21:33 41.63892 28.64414 5044 ft 283 kts 103°
2026-05-07 21:33 41.63474 28.66946 5037 ft 282 kts 109°
2026-05-07 21:33 41.62459 28.69135 5024 ft 278 kts 137°
2026-05-07 21:34 41.60890 28.70601 5050 ft 275 kts 152°
2026-05-07 21:34 41.59214 28.71834 5024 ft 273 kts 162°
2026-05-07 21:34 41.57358 28.72175 5033 ft 268 kts 182°
2026-05-07 21:34 41.55491 28.72102 5036 ft 269 kts 183°
2026-05-07 21:35 41.53613 28.72127 4871 ft 269 kts 182°
2026-05-07 21:35 41.51773 28.72176 4535 ft 260 kts 181°
2026-05-07 21:35 41.49991 28.72226 4187 ft 253 kts 182°
2026-05-07 21:35 41.48252 28.72270 3851 ft 247 kts 182°
2026-05-07 21:36 41.46556 28.72312 3527 ft 242 kts 182°
2026-05-07 21:36 41.44893 28.72352 3217 ft 237 kts 183°
2026-05-07 21:36 41.43259 28.72384 2898 ft 233 kts 184°
2026-05-07 21:36 41.41649 28.72423 2594 ft 230 kts 184°
2026-05-07 21:37 41.40071 28.72461 2286 ft 220 kts 184°
2026-05-07 21:37 41.38650 28.72496 2042 ft 188 kts 185°
2026-05-07 21:37 41.37435 28.72523 1799 ft 161 kts 185°
2026-05-07 21:37 41.36385 28.72540 1584 ft 145 kts 186°
2026-05-07 21:38 41.35384 28.72560 1397 ft 143 kts 184°
2026-05-07 21:38 41.34396 28.72582 1205 ft 141 kts 183°
2026-05-07 21:38 41.33427 28.72613 1030 ft 140 kts 181°
2026-05-07 21:38 41.32465 28.72632 841 ft 135 kts 180°
2026-05-07 21:39 41.31510 28.72654 671 ft 138 kts 179°
2026-05-07 21:39 41.30562 28.72676 510 ft 137 kts 181°
2026-05-07 21:39 41.29622 28.72696 364 ft 134 kts 179°
2026-05-07 21:39 41.28787 28.72719 336 ft 100 kts 179°
2026-05-07 21:40 41.28245 28.72731 337 ft 63 kts 179°
2026-05-07 21:40 41.27860 28.72738 339 ft 51 kts 179°
2026-05-07 21:40 41.27582 28.72779 336 ft 36 kts 157°
2026-05-07 21:40 41.27442 28.72886 338 ft 18 kts 149°
2026-05-07 21:41 41.27330 28.72967 335 ft 18 kts 161°
2026-05-07 21:41 41.27203 28.72980 337 ft 18 kts 178°
2026-05-07 21:41 41.27072 28.72984 340 ft 19 kts 179°
2026-05-07 21:41 41.26961 28.73008 335 ft 12 kts 136°
2026-05-07 21:42 41.26954 28.73111 340 ft 14 kts 89°
2026-05-07 21:42 41.26956 28.73275 338 ft 19 kts 88°
2026-05-07 21:42 41.26958 28.73456 336 ft 20 kts 89°
2026-05-07 21:42 41.26960 28.73651 340 ft 21 kts 89°
2026-05-07 21:43 41.26963 28.73846 340 ft 21 kts 89°
2026-05-07 21:43 41.26963 28.73973 340 ft 10 kts 98°
2026-05-07 21:43 41.26909 28.74015 335 ft 13 kts 177°
2026-05-07 21:43 41.26810 28.74018 339 ft 15 kts 179°
2026-05-07 21:44 41.26705 28.74022 336 ft 13 kts 173°
2026-05-07 21:44 41.26674 28.74074 336 ft 9 kts 97°
2026-05-07 21:44 41.26674 28.74125 338 ft 2 kts 89°
2026-05-07 21:44 41.26674 28.74128 338 ft 0 kts 89°